Regional Weather Roundup
Issued by NWS

Home | Current Version | Previous Version | Text Only | Print | Product List | Glossary Off
Versions: 1 2 3 4 5 6 7 8 9 10 11 12 13 14 15 16 17 18 19 20 21 22 23 24 25 26 27 28 29 30 31 32 33 34 35 36 37 38 39 40 41 42 43 44 45 46 47 48 49 50

000
ASUS44 KMEG 291810
RWRTN
TENNESSEE HOURLY STATE WEATHER ROUNDUP
NATIONAL WEATHER SERVICE MEMPHIS TN
100 PM CDT WED OCT 29 2014

TNZ002-004-019-021-049-052-054-088>092-291900-
WEST TENNESSEE

CITY           SKY/WX    TMP DP  RH WIND       PRES   REMARKS
MEMPHIS INTL   FAIR      69  43  38 N3        30.18F
NWS MEMPHIS      N/A     66 N/A N/A MISG        N/A
JACKSON        FAIR      66  43  43 VRB3      30.17F
DYERSBURG      FAIR      64  45  48 W8        30.19F
UNION CITY     SUNNY     63  45  51 W6        30.16F
PARIS          SUNNY     63  45  51 W8        30.16F
HUNTINGDON     FAIR      63  44  49 VRB5      30.16F
LEXINGTON      SUNNY     64  39  39 VRB6      30.15F
SAVANNAH       SUNNY     66  45  45 NW7       30.16F
$$

TNZ008-025-027-028-033-062-065-066-291900-
NORTH MIDDLE TENNESSEE

CITY           SKY/WX    TMP DP  RH WIND       PRES   REMARKS
NASHVILLE      MOSUNNY   66  40  38 W6        30.14F
CLARKSVILLE    SUNNY     65  41  41 NW9       30.14F
SMYRNA         MOSUNNY   65  39  38 N7        30.15F
COOKEVILLE     SUNNY     63  41  45 VRB7      30.12F
CROSSVILLE     SUNNY     61  38  42 NW8G16    30.12F
$$

TNZ061-075-076-078-094-096-097-291900-
SOUTH MIDDLE TENNESSEE

CITY           SKY/WX    TMP DP  RH WIND       PRES   REMARKS
FAYETTEVILLE   SUNNY     63  41  45 CALM      30.13F
TULLAHOMA      SUNNY     63  43  48 N7        30.14F
WINCHESTER     SUNNY     63  45  51 N7        30.13F
MCMINNVILLE    SUNNY     63  45  51 CALM      30.13F
COLUMBIA       SUNNY     66  45  45 N5        30.13F
SHELBYVILLE    SUNNY     64  46  52 N12       30.15F
$$

TNZ017-018-042-046-047-291900-
NORTHEAST TENNESSEE

CITY           SKY/WX    TMP DP  RH WIND       PRES   REMARKS
TRI CITIES     CLOUDY    54  48  80 W5        30.10F
ELIZABETHTON   CLOUDY    50  48  93 SW10      30.10S
$$

TNZ012-013-036-069-073-074-291900-
CENTRAL EAST TENNESSEE

CITY           SKY/WX    TMP DP  RH WIND       PRES   REMARKS
KNOXVILLE      CLOUDY    54  49  83 E3        30.11F
OAK RIDGE      CLOUDY    58  48  69 CALM      30.12F
GATLINBURG     CLOUDY    52  48  87 SW7       30.12F
MORRISTOWN     CLOUDY    55  46  71 CALM      30.12S
$$

TNZ083-085-099-291900-
SOUTHEAST TENNESSEE

CITY           SKY/WX    TMP DP  RH WIND       PRES   REMARKS
CHATTANOOGA    PTSUNNY   59  51  75 N10       30.12F
$$

SKY/WX REPORTED AS FAIR MEANS FEW OR NO CLOUDS BELOW
12 THOUSAND FEET.




USA.gov is the U.S. government's official web portal to all federal, state and local government web resources and services.